WLF9634 EGCC-EFHK

Flight info

Callsign WLF9634
Flight time 2h 32m
Altitude 33000
Route POL P17 MEJAC DCT REKNA DCT VAXIT DCT DANKO DCT NERDO DCT TORVA DCT RIRIP Y364 LAKUT
Aircraft B738/M-SDE2E3FGHIRWXY/LB1

Departure

Time 2026-04-21 10:36
Airport Manchester Airport (EGCC)

Arrival

Time 2026-04-21 13:09
Airport Helsinki Vantaa Airport (EFHK)
Time Latitude Longitude Altitude Speed Heading
2026-04-21 09:59 53.36601 -2.28355 246 ft 0 kts 315°
2026-04-21 10:24 53.36594 -2.28344 246 ft 4 kts 315°
2026-04-21 10:24 53.36576 -2.28312 246 ft 4 kts 315°
2026-04-21 10:24 53.36559 -2.28285 246 ft 3 kts 314°
2026-04-21 10:25 53.36549 -2.28254 246 ft 4 kts 253°
2026-04-21 10:25 53.36560 -2.28222 246 ft 2 kts 224°
2026-04-21 10:25 53.36549 -2.28240 246 ft 0 kts 224°
2026-04-21 10:28 53.36523 -2.28284 246 ft 8 kts 225°
2026-04-21 10:28 53.36460 -2.28364 246 ft 12 kts 199°
2026-04-21 10:28 53.36405 -2.28430 246 ft 9 kts 223°
2026-04-21 10:29 53.36353 -2.28480 246 ft 9 kts 178°
2026-04-21 10:29 53.36305 -2.28424 246 ft 8 kts 133°
2026-04-21 10:29 53.36263 -2.28356 246 ft 8 kts 136°
2026-04-21 10:29 53.36222 -2.28289 246 ft 9 kts 135°
2026-04-21 10:30 53.36174 -2.28208 246 ft 11 kts 133°
2026-04-21 10:30 53.36117 -2.28111 246 ft 13 kts 136°
2026-04-21 10:30 53.36057 -2.28011 246 ft 12 kts 134°
2026-04-21 10:30 53.35999 -2.27912 246 ft 10 kts 135°
2026-04-21 10:31 53.35935 -2.27851 246 ft 12 kts 165°
2026-04-21 10:31 53.35851 -2.27854 246 ft 13 kts 187°
2026-04-21 10:31 53.35753 -2.27873 246 ft 15 kts 185°
2026-04-21 10:31 53.35662 -2.27889 246 ft 14 kts 186°
2026-04-21 10:32 53.35607 -2.27939 246 ft 15 kts 224°
2026-04-21 10:32 53.35523 -2.28094 239 ft 20 kts 214°
2026-04-21 10:32 53.35402 -2.28167 237 ft 18 kts 187°
2026-04-21 10:32 53.35287 -2.28227 235 ft 18 kts 214°
2026-04-21 10:33 53.35201 -2.28372 231 ft 17 kts 228°
2026-04-21 10:33 53.35125 -2.28522 230 ft 17 kts 232°
2026-04-21 10:33 53.35053 -2.28668 233 ft 16 kts 230°
2026-04-21 10:33 53.34983 -2.28800 228 ft 15 kts 227°
2026-04-21 10:34 53.34910 -2.28928 225 ft 16 kts 225°
2026-04-21 10:34 53.34824 -2.29081 216 ft 20 kts 228°
2026-04-21 10:34 53.34731 -2.29261 207 ft 21 kts 224°
2026-04-21 10:34 53.34625 -2.29341 212 ft 13 kts 180°
2026-04-21 10:35 53.34546 -2.29278 213 ft 13 kts 120°
2026-04-21 10:35 53.34586 -2.29122 209 ft 31 kts 51°
2026-04-21 10:35 53.34873 -2.28529 236 ft 98 kts 51°
2026-04-21 10:35 53.35433 -2.27369 260 ft 155 kts 51°
2026-04-21 10:36 53.36205 -2.25823 585 ft 182 kts 51°
2026-04-21 10:36 53.36979 -2.24228 1650 ft 167 kts 53°
2026-04-21 10:36 53.37666 -2.22712 2561 ft 166 kts 54°
2026-04-21 10:36 53.38422 -2.21050 2908 ft 192 kts 54°
2026-04-21 10:37 53.39280 -2.19179 3172 ft 211 kts 54°
2026-04-21 10:37 53.40187 -2.17211 3701 ft 215 kts 54°
2026-04-21 10:37 53.41118 -2.15194 4241 ft 221 kts 54°
2026-04-21 10:37 53.41973 -2.13348 4785 ft 224 kts 55°
2026-04-21 10:38 53.42969 -2.11192 4918 ft 240 kts 54°
2026-04-21 10:38 53.44284 -2.09479 4902 ft 248 kts 21°
2026-04-21 10:38 53.46043 -2.09325 4977 ft 260 kts
2026-04-21 10:38 53.47848 -2.09455 4974 ft 263 kts
2026-04-21 10:39 53.49679 -2.09556 4966 ft 264 kts
2026-04-21 10:39 53.51530 -2.09634 4954 ft 262 kts
2026-04-21 10:39 53.53327 -2.09697 4951 ft 261 kts
2026-04-21 10:39 53.55139 -2.09775 4963 ft 260 kts
2026-04-21 10:40 53.56945 -2.09823 4953 ft 259 kts
2026-04-21 10:40 53.58748 -2.09861 4963 ft 259 kts
2026-04-21 10:40 53.60521 -2.09526 5003 ft 256 kts 15°
2026-04-21 10:40 53.62297 -2.08997 5513 ft 261 kts 15°
2026-04-21 10:41 53.64088 -2.08449 6399 ft 261 kts 16°
2026-04-21 10:41 53.65899 -2.07906 7116 ft 267 kts 16°
2026-04-21 10:41 53.67749 -2.07363 7818 ft 272 kts 15°
2026-04-21 10:41 53.69599 -2.06826 8551 ft 275 kts 15°
2026-04-21 10:42 53.71494 -2.06287 9301 ft 278 kts 15°
2026-04-21 10:42 53.73424 -2.05743 10012 ft 283 kts 14°
2026-04-21 10:42 53.75377 -2.05194 10779 ft 284 kts 14°
2026-04-21 10:42 53.77340 -2.04648 11524 ft 287 kts 14°
2026-04-21 10:43 53.79327 -2.04096 12236 ft 290 kts 14°
2026-04-21 10:43 53.81324 -2.03541 12919 ft 292 kts 14°
2026-04-21 10:43 53.83348 -2.02978 13581 ft 297 kts 14°
2026-04-21 10:43 53.85395 -2.02407 14276 ft 299 kts 14°
2026-04-21 10:44 53.87456 -2.01835 14917 ft 302 kts 14°
2026-04-21 10:44 53.89542 -2.01255 15522 ft 306 kts 13°
2026-04-21 10:44 53.91652 -2.00666 16165 ft 308 kts 13°
2026-04-21 10:44 53.93781 -2.00071 16786 ft 311 kts 13°
2026-04-21 10:45 53.95928 -1.99472 17389 ft 314 kts 13°
2026-04-21 10:45 53.98096 -1.98865 17964 ft 317 kts 13°
2026-04-21 10:45 54.00257 -1.98260 18541 ft 320 kts 13°
2026-04-21 10:45 54.02492 -1.97583 19127 ft 322 kts 17°
2026-04-21 10:46 54.04645 -1.96638 19677 ft 324 kts 19°
2026-04-21 10:46 54.06824 -1.95596 20228 ft 327 kts 19°
2026-04-21 10:46 54.09028 -1.94545 20758 ft 330 kts 19°
2026-04-21 10:46 54.11253 -1.93518 21291 ft 333 kts 19°
2026-04-21 10:47 54.13500 -1.92499 21798 ft 336 kts 18°
2026-04-21 10:47 54.15770 -1.91472 22302 ft 339 kts 18°
2026-04-21 10:47 54.18054 -1.90437 22801 ft 341 kts 18°
2026-04-21 10:47 54.20361 -1.89367 23266 ft 344 kts 19°
2026-04-21 10:48 54.22683 -1.88279 23764 ft 346 kts 19°
2026-04-21 10:48 54.25013 -1.87183 24218 ft 349 kts 19°
2026-04-21 10:48 54.27363 -1.86079 24656 ft 352 kts 18°
2026-04-21 10:48 54.29708 -1.84977 25092 ft 354 kts 18°
2026-04-21 10:49 54.32058 -1.83677 25518 ft 354 kts 28°
2026-04-21 10:49 54.34096 -1.81370 25939 ft 351 kts 44°
2026-04-21 10:49 54.35692 -1.78212 26347 ft 350 kts 57°
2026-04-21 10:49 54.37045 -1.74751 26867 ft 349 kts 58°
2026-04-21 10:50 54.37921 -1.72430 27172 ft 348 kts 58°
2026-04-21 10:50 54.39665 -1.67748 27732 ft 349 kts 58°
2026-04-21 10:50 54.40974 -1.64236 28218 ft 348 kts 58°
2026-04-21 10:50 54.42281 -1.60741 28655 ft 347 kts 58°
2026-04-21 10:51 54.43591 -1.57252 29024 ft 348 kts 58°
2026-04-21 10:51 54.44905 -1.53759 29425 ft 348 kts 58°
2026-04-21 10:51 54.46218 -1.50276 29815 ft 347 kts 57°
2026-04-21 10:51 54.47533 -1.46793 30197 ft 347 kts 57°
2026-04-21 10:52 54.48844 -1.43318 30553 ft 347 kts 57°
2026-04-21 10:52 54.50159 -1.39832 30870 ft 347 kts 57°
2026-04-21 10:52 54.51474 -1.36341 31194 ft 347 kts 57°
2026-04-21 10:52 54.52785 -1.32853 31533 ft 347 kts 57°
2026-04-21 10:53 54.54092 -1.29372 31823 ft 347 kts 57°
2026-04-21 10:53 54.55384 -1.25922 32100 ft 347 kts 57°
2026-04-21 10:53 54.56692 -1.22429 32403 ft 347 kts 57°
2026-04-21 10:53 54.57996 -1.18944 32685 ft 346 kts 57°
2026-04-21 10:54 54.59304 -1.15442 32929 ft 347 kts 57°
2026-04-21 10:54 54.60610 -1.11946 33183 ft 347 kts 57°
2026-04-21 10:54 54.61914 -1.08447 33407 ft 347 kts 57°
2026-04-21 10:54 54.63223 -1.04927 33584 ft 349 kts 57°
2026-04-21 10:55 54.64542 -1.01377 33657 ft 353 kts 57°
2026-04-21 10:55 54.65868 -0.97803 33790 ft 354 kts 57°
2026-04-21 10:55 54.67198 -0.94213 33979 ft 354 kts 57°
2026-04-21 10:55 54.68525 -0.90624 34158 ft 355 kts 57°
2026-04-21 10:56 54.69853 -0.87027 34301 ft 356 kts 57°
2026-04-21 10:56 54.71203 -0.83368 34092 ft 369 kts 57°
2026-04-21 10:56 54.72131 -0.80848 33830 ft 381 kts 57°
2026-04-21 10:56 54.73587 -0.76892 33516 ft 395 kts 57°
2026-04-21 10:57 54.75560 -0.71514 33517 ft 404 kts 57°
2026-04-21 10:57 54.78113 -0.64540 33512 ft 413 kts 58°
2026-04-21 10:58 54.81205 -0.56069 33507 ft 424 kts 58°
2026-04-21 10:58 54.84386 -0.47327 33505 ft 433 kts 58°
2026-04-21 10:59 54.87631 -0.38375 33504 ft 442 kts 58°
2026-04-21 10:59 54.90935 -0.29227 33499 ft 451 kts 58°
2026-04-21 11:00 54.94282 -0.19919 33492 ft 455 kts 58°
2026-04-21 11:00 54.97637 -0.10562 33492 ft 455 kts 58°
2026-04-21 11:01 55.00958 -0.01258 33492 ft 455 kts 58°
2026-04-21 11:01 55.04283 0.08085 33493 ft 449 kts 59°
2026-04-21 11:02 55.09147 0.21823 33475 ft 442 kts 59°
2026-04-21 11:02 55.12374 0.30984 33471 ft 443 kts 59°
2026-04-21 11:03 55.15605 0.40191 33470 ft 444 kts 59°
2026-04-21 11:03 55.18832 0.49416 33471 ft 445 kts 59°
2026-04-21 11:04 55.22036 0.58608 33470 ft 445 kts 59°
2026-04-21 11:04 55.25250 0.67866 33478 ft 444 kts 60°
2026-04-21 11:05 55.28453 0.77130 33477 ft 444 kts 60°
2026-04-21 11:05 55.31649 0.86410 33479 ft 444 kts 60°
2026-04-21 11:06 55.34840 0.95705 33478 ft 444 kts 60°
2026-04-21 11:06 55.38016 1.04997 33477 ft 443 kts 60°
2026-04-21 11:07 55.41160 1.14234 33474 ft 442 kts 60°
2026-04-21 11:07 55.44315 1.23530 33478 ft 441 kts 60°
2026-04-21 11:08 55.47453 1.32812 33481 ft 440 kts 60°
2026-04-21 11:08 55.50576 1.42085 33488 ft 439 kts 60°
2026-04-21 11:09 55.53680 1.51342 33495 ft 438 kts 60°
2026-04-21 11:09 55.56775 1.60610 33499 ft 438 kts 61°
2026-04-21 11:10 55.59843 1.69828 33495 ft 437 kts 61°
2026-04-21 11:10 55.62922 1.79113 33498 ft 437 kts 61°
2026-04-21 11:11 55.65986 1.88395 33495 ft 437 kts 61°
2026-04-21 11:11 55.69051 1.97708 33494 ft 437 kts 61°
2026-04-21 11:12 55.72084 2.06968 33492 ft 437 kts 61°
2026-04-21 11:12 55.75135 2.16310 33484 ft 437 kts 61°
2026-04-21 11:13 55.78173 2.25649 33484 ft 436 kts 62°
2026-04-21 11:13 55.81204 2.35004 33487 ft 436 kts 62°
2026-04-21 11:14 55.84205 2.44305 33486 ft 435 kts 62°
2026-04-21 11:14 55.87213 2.53667 33484 ft 435 kts 62°
2026-04-21 11:15 55.90219 2.63052 33489 ft 435 kts 62°
2026-04-21 11:15 55.93217 2.72455 33488 ft 436 kts 62°
2026-04-21 11:16 55.96215 2.81892 33487 ft 436 kts 62°
2026-04-21 11:16 55.99202 2.91334 33487 ft 437 kts 62°
2026-04-21 11:17 56.02161 3.00751 33488 ft 437 kts 62°
2026-04-21 11:17 56.05237 3.10152 33487 ft 438 kts 59°
2026-04-21 11:18 56.08591 3.19256 33486 ft 438 kts 58°
2026-04-21 11:18 56.11910 3.28405 33489 ft 436 kts 60°
2026-04-21 11:19 56.14905 3.37764 33486 ft 435 kts 63°
2026-04-21 11:19 56.17763 3.47341 33487 ft 434 kts 63°
2026-04-21 11:20 56.20783 3.56752 33486 ft 434 kts 60°
2026-04-21 11:20 56.24027 3.65905 33492 ft 434 kts 59°
2026-04-21 11:21 56.27181 3.75131 33497 ft 432 kts 62°
2026-04-21 11:21 56.30101 3.84515 33496 ft 432 kts 62°
2026-04-21 11:22 56.33064 3.93935 33489 ft 432 kts 62°
2026-04-21 11:22 56.36077 4.03326 33487 ft 432 kts 62°
2026-04-21 11:23 56.39100 4.12692 33493 ft 432 kts 62°
2026-04-21 11:23 56.42129 4.22089 33497 ft 432 kts 62°
2026-04-21 11:24 56.45152 4.31513 33495 ft 433 kts 62°
2026-04-21 11:24 56.48169 4.40945 33495 ft 434 kts 62°
2026-04-21 11:25 56.51160 4.50344 33496 ft 433 kts 62°
2026-04-21 11:25 56.54167 4.59829 33496 ft 434 kts 62°
2026-04-21 11:26 56.57171 4.69342 33496 ft 434 kts 62°
2026-04-21 11:26 56.60165 4.78865 33503 ft 435 kts 62°
2026-04-21 11:27 56.63156 4.88411 33505 ft 435 kts 62°
2026-04-21 11:27 56.66142 4.97986 33503 ft 435 kts 62°
2026-04-21 11:28 56.69121 5.07571 33500 ft 436 kts 62°
2026-04-21 11:28 56.72101 5.17203 33496 ft 436 kts 62°
2026-04-21 11:29 56.75069 5.26834 33501 ft 436 kts 63°
2026-04-21 11:29 56.78032 5.36483 33487 ft 436 kts 63°
2026-04-21 11:30 56.80986 5.46148 33486 ft 436 kts 63°
2026-04-21 11:30 56.83937 5.55836 33485 ft 436 kts 63°
2026-04-21 11:31 56.86857 5.65472 33476 ft 436 kts 63°
2026-04-21 11:31 56.89791 5.75192 33464 ft 436 kts 63°
2026-04-21 11:32 56.92716 5.84916 33457 ft 436 kts 63°
2026-04-21 11:32 56.95627 5.94639 33462 ft 435 kts 63°
2026-04-21 11:33 56.98530 6.04377 33459 ft 436 kts 63°
2026-04-21 11:33 57.01425 6.14131 33458 ft 435 kts 64°
2026-04-21 11:34 57.04298 6.23843 33458 ft 435 kts 64°
2026-04-21 11:34 57.07181 6.33635 33458 ft 436 kts 64°
2026-04-21 11:35 57.10062 6.43455 33456 ft 435 kts 64°
2026-04-21 11:35 57.12928 6.53267 33460 ft 435 kts 64°
2026-04-21 11:36 57.15773 6.63053 33460 ft 436 kts 64°
2026-04-21 11:36 57.18628 6.72916 33459 ft 436 kts 64°
2026-04-21 11:37 57.21474 6.82785 33459 ft 436 kts 64°
2026-04-21 11:37 57.24317 6.92688 33458 ft 436 kts 64°
2026-04-21 11:38 57.27137 7.02554 33460 ft 436 kts 65°
2026-04-21 11:38 57.29962 7.12478 33456 ft 436 kts 65°
2026-04-21 11:39 57.32780 7.22421 33460 ft 436 kts 65°
2026-04-21 11:39 57.35584 7.32354 33460 ft 435 kts 65°
2026-04-21 11:40 57.38379 7.42302 33458 ft 435 kts 65°
2026-04-21 11:40 57.41164 7.52255 33459 ft 435 kts 65°
2026-04-21 11:41 57.43943 7.62233 33457 ft 435 kts 65°
2026-04-21 11:41 57.46699 7.72175 33459 ft 435 kts 66°
2026-04-21 11:42 57.49463 7.82184 33460 ft 435 kts 66°
2026-04-21 11:42 57.52221 7.92221 33459 ft 435 kts 66°
2026-04-21 11:43 57.54971 8.02265 33463 ft 436 kts 66°
2026-04-21 11:43 57.57716 8.12339 33455 ft 436 kts 66°
2026-04-21 11:44 57.60457 8.22444 33449 ft 436 kts 66°
2026-04-21 11:44 57.63169 8.32482 33451 ft 436 kts 66°
2026-04-21 11:45 57.65890 8.42598 33450 ft 436 kts 66°
2026-04-21 11:45 57.68599 8.52721 33450 ft 435 kts 66°
2026-04-21 11:46 57.70863 8.61210 33450 ft 435 kts 66°
2026-04-21 11:46 57.73537 8.71283 33450 ft 435 kts 66°
2026-04-21 11:47 57.76222 8.81440 33451 ft 434 kts 66°
2026-04-21 11:47 57.78896 8.91600 33451 ft 434 kts 66°
2026-04-21 11:48 57.81560 9.01764 33450 ft 434 kts 67°
2026-04-21 11:48 57.84211 9.11932 33447 ft 433 kts 67°
2026-04-21 11:49 57.86842 9.22082 33439 ft 432 kts 67°
2026-04-21 11:49 57.89470 9.32248 33442 ft 432 kts 67°
2026-04-21 11:50 57.92068 9.42345 33442 ft 432 kts 67°
2026-04-21 11:50 57.94676 9.52533 33441 ft 432 kts 67°
2026-04-21 11:51 57.97278 9.62748 33443 ft 432 kts 67°
2026-04-21 11:51 57.99874 9.72974 33438 ft 432 kts 67°
2026-04-21 11:52 58.02462 9.83216 33442 ft 433 kts 67°
2026-04-21 11:52 58.05047 9.93504 33442 ft 434 kts 67°
2026-04-21 11:53 58.07613 10.03759 33441 ft 435 kts 67°
2026-04-21 11:53 58.10189 10.14100 33434 ft 435 kts 67°
2026-04-21 11:54 58.12433 10.23150 33431 ft 436 kts 67°
2026-04-21 11:54 58.14856 10.32965 33434 ft 436 kts 68°
2026-04-21 11:55 58.17413 10.43373 33430 ft 436 kts 68°
2026-04-21 11:55 58.19970 10.53824 33432 ft 437 kts 68°
2026-04-21 11:56 58.22517 10.64289 33431 ft 437 kts 68°
2026-04-21 11:56 58.25056 10.74772 33432 ft 437 kts 68°
2026-04-21 11:57 58.27570 10.85187 33406 ft 438 kts 68°
2026-04-21 11:57 58.30095 10.95743 33422 ft 438 kts 67°
2026-04-21 11:58 58.32623 11.06326 33425 ft 439 kts 67°
2026-04-21 11:58 58.34748 11.15257 33415 ft 439 kts 67°
2026-04-21 11:59 58.37157 11.25430 33416 ft 439 kts 67°
2026-04-21 11:59 58.39658 11.36048 33410 ft 439 kts 67°
2026-04-21 12:00 58.42148 11.46673 33398 ft 438 kts 67°
2026-04-21 12:00 58.44625 11.57301 33420 ft 438 kts 67°
2026-04-21 12:01 58.47075 11.67858 33416 ft 437 kts 68°
2026-04-21 12:01 58.49526 11.78472 33421 ft 436 kts 68°
2026-04-21 12:02 58.53174 11.94372 33423 ft 434 kts 68°
2026-04-21 12:03 58.55590 12.04970 33419 ft 434 kts 68°
2026-04-21 12:03 58.57978 12.15493 33425 ft 433 kts 68°
2026-04-21 12:04 58.60372 12.26098 33419 ft 433 kts 68°
2026-04-21 12:04 58.62763 12.36737 33425 ft 433 kts 68°
2026-04-21 12:05 58.65141 12.47381 33422 ft 434 kts 68°
2026-04-21 12:05 58.67514 12.58056 33416 ft 435 kts 68°
2026-04-21 12:06 58.69880 12.68749 33421 ft 435 kts 67°
2026-04-21 12:06 58.72243 12.79482 33398 ft 436 kts 67°
2026-04-21 12:07 58.74592 12.90206 33409 ft 437 kts 68°
2026-04-21 12:07 58.76944 13.01004 33398 ft 438 kts 67°
2026-04-21 12:08 58.79292 13.11837 33398 ft 438 kts 67°
2026-04-21 12:08 58.81629 13.22681 33390 ft 438 kts 68°
2026-04-21 12:09 58.83960 13.33551 33401 ft 437 kts 67°
2026-04-21 12:09 58.86279 13.44421 33395 ft 437 kts 67°
2026-04-21 12:10 58.88588 13.55301 33396 ft 437 kts 67°
2026-04-21 12:10 58.90872 13.66122 33392 ft 437 kts 68°
2026-04-21 12:11 58.93163 13.77032 33383 ft 437 kts 68°
2026-04-21 12:11 58.95442 13.87940 33387 ft 436 kts 68°
2026-04-21 12:12 58.97708 13.98845 33387 ft 436 kts 68°
2026-04-21 12:12 58.99965 14.09774 33386 ft 436 kts 67°
2026-04-21 12:13 59.02214 14.20711 33382 ft 436 kts 65°
2026-04-21 12:13 59.04453 14.31656 33377 ft 436 kts 66°
2026-04-21 12:14 59.06668 14.42558 33377 ft 436 kts 66°
2026-04-21 12:14 59.08889 14.53549 33382 ft 437 kts 66°
2026-04-21 12:15 59.11104 14.64567 33377 ft 437 kts 66°
2026-04-21 12:15 59.13313 14.75602 33379 ft 437 kts 66°
2026-04-21 12:16 59.15511 14.86657 33378 ft 437 kts 66°
2026-04-21 12:16 59.17700 14.97730 33380 ft 437 kts 66°
2026-04-21 12:17 59.19878 15.08804 33376 ft 437 kts 66°
2026-04-21 12:17 59.22033 15.19825 33378 ft 436 kts 66°
2026-04-21 12:18 59.24189 15.30909 33377 ft 436 kts 66°
2026-04-21 12:18 59.26336 15.42006 33379 ft 436 kts 66°
2026-04-21 12:19 59.28472 15.53116 33375 ft 436 kts 66°
2026-04-21 12:19 59.30596 15.64223 33365 ft 436 kts 66°
2026-04-21 12:20 59.32713 15.75357 33368 ft 436 kts 66°
2026-04-21 12:20 59.34818 15.86496 33360 ft 436 kts 66°
2026-04-21 12:21 59.36900 15.97581 33360 ft 437 kts 66°
2026-04-21 12:21 59.38995 16.08785 33363 ft 436 kts 66°
2026-04-21 12:22 59.41074 16.19968 33352 ft 436 kts 66°
2026-04-21 12:22 59.43089 16.31228 33351 ft 437 kts 67°
2026-04-21 12:23 59.45039 16.42557 33347 ft 437 kts 67°
2026-04-21 12:23 59.46980 16.53895 33347 ft 437 kts 67°
2026-04-21 12:24 59.48916 16.65220 33350 ft 436 kts 67°
2026-04-21 12:24 59.50828 16.76447 33348 ft 435 kts 67°
2026-04-21 12:25 59.52748 16.87776 33351 ft 435 kts 68°
2026-04-21 12:25 59.54650 16.99069 33349 ft 434 kts 68°
2026-04-21 12:26 59.56542 17.10385 33343 ft 434 kts 68°
2026-04-21 12:26 59.58411 17.21632 33339 ft 433 kts 68°
2026-04-21 12:27 59.60277 17.32929 33341 ft 432 kts 68°
2026-04-21 12:27 59.62129 17.44208 33330 ft 432 kts 68°
2026-04-21 12:28 59.63971 17.55499 33320 ft 431 kts 68°
2026-04-21 12:28 59.65800 17.66781 33325 ft 431 kts 68°
2026-04-21 12:29 59.67623 17.78106 33319 ft 432 kts 68°
2026-04-21 12:29 59.69437 17.89434 33326 ft 432 kts 68°
2026-04-21 12:30 59.71245 18.00809 33322 ft 433 kts 68°
2026-04-21 12:30 59.73046 18.12218 33324 ft 434 kts 68°
2026-04-21 12:31 59.74843 18.23664 33322 ft 435 kts 68°
2026-04-21 12:31 59.76620 18.35082 33324 ft 435 kts 68°
2026-04-21 12:32 59.78398 18.46577 33320 ft 435 kts 68°
2026-04-21 12:32 59.80164 18.58054 33313 ft 435 kts 68°
2026-04-21 12:33 59.81921 18.69556 33311 ft 434 kts 69°
2026-04-21 12:33 59.83663 18.81041 33317 ft 433 kts 69°
2026-04-21 12:34 59.85100 18.90579 33312 ft 433 kts 69°
2026-04-21 12:34 59.87096 19.03905 33312 ft 432 kts 69°
2026-04-21 12:35 59.88800 19.15366 33301 ft 431 kts 69°
2026-04-21 12:35 59.90217 19.24961 33301 ft 430 kts 69°
2026-04-21 12:36 59.91885 19.36326 33297 ft 430 kts 69°
2026-04-21 12:36 59.93556 19.47782 33292 ft 430 kts 69°
2026-04-21 12:37 59.95217 19.59253 33294 ft 430 kts 69°
2026-04-21 12:37 59.96868 19.70751 33298 ft 431 kts 69°
2026-04-21 12:38 59.98514 19.82278 33294 ft 432 kts 70°
2026-04-21 12:38 60.00156 19.93860 33299 ft 434 kts 70°
2026-04-21 12:39 60.01794 20.05500 33297 ft 435 kts 70°
2026-04-21 12:39 60.03413 20.17089 33294 ft 436 kts 70°
2026-04-21 12:40 60.05045 20.28854 33292 ft 436 kts 70°
2026-04-21 12:40 60.06647 20.40505 33292 ft 436 kts 70°
2026-04-21 12:41 60.08251 20.52246 33286 ft 437 kts 70°
2026-04-21 12:41 60.09846 20.64007 33281 ft 437 kts 71°
2026-04-21 12:42 60.11420 20.75702 33281 ft 436 kts 71°
2026-04-21 12:42 60.12990 20.87457 33275 ft 436 kts 71°
2026-04-21 12:43 60.14549 20.99213 33268 ft 436 kts 71°
2026-04-21 12:43 60.16098 21.10992 33261 ft 436 kts 71°
2026-04-21 12:44 60.17589 21.22417 33251 ft 437 kts 71°
2026-04-21 12:44 60.19121 21.34227 33247 ft 436 kts 71°
2026-04-21 12:45 60.20629 21.46044 33238 ft 437 kts 73°
2026-04-21 12:45 60.21913 21.57999 33232 ft 438 kts 75°
2026-04-21 12:46 60.23109 21.69928 33228 ft 437 kts 75°
2026-04-21 12:46 60.24322 21.81901 33229 ft 436 kts 75°
2026-04-21 12:47 60.25549 21.93926 32665 ft 442 kts 75°
2026-04-21 12:47 60.26166 21.99979 32028 ft 439 kts 75°
2026-04-21 12:47 60.26777 22.06010 31323 ft 439 kts 75°
2026-04-21 12:47 60.27384 22.12035 30584 ft 439 kts 75°
2026-04-21 12:48 60.27990 22.18074 29815 ft 439 kts 76°
2026-04-21 12:48 60.28593 22.24117 29016 ft 440 kts 76°
2026-04-21 12:48 60.29193 22.30164 28181 ft 441 kts 76°
2026-04-21 12:48 60.29792 22.36239 27307 ft 443 kts 75°
2026-04-21 12:49 60.30387 22.42304 26684 ft 438 kts 75°
2026-04-21 12:49 60.30974 22.48318 26043 ft 434 kts 75°
2026-04-21 12:49 60.31553 22.54264 25429 ft 429 kts 75°
2026-04-21 12:49 60.32121 22.60126 24819 ft 425 kts 75°
2026-04-21 12:50 60.32675 22.65876 24221 ft 420 kts 75°
2026-04-21 12:50 60.33225 22.71625 23695 ft 414 kts 75°
2026-04-21 12:50 60.33767 22.77308 23108 ft 410 kts 75°
2026-04-21 12:50 60.34300 22.82929 22528 ft 406 kts 75°
2026-04-21 12:51 60.34829 22.88519 21956 ft 402 kts 75°
2026-04-21 12:51 60.35350 22.94044 21379 ft 399 kts 75°
2026-04-21 12:51 60.35864 22.99525 20800 ft 396 kts 75°
2026-04-21 12:51 60.36372 23.04965 20244 ft 392 kts 75°
2026-04-21 12:52 60.36873 23.10356 19675 ft 389 kts 75°
2026-04-21 12:52 60.37369 23.15710 19111 ft 386 kts 76°
2026-04-21 12:52 60.37858 23.21016 18547 ft 383 kts 76°
2026-04-21 12:52 60.38341 23.26290 17985 ft 380 kts 76°
2026-04-21 12:53 60.38819 23.31527 17444 ft 377 kts 76°
2026-04-21 12:53 60.39290 23.36714 16895 ft 374 kts 76°
2026-04-21 12:53 60.39756 23.41864 16345 ft 371 kts 76°
2026-04-21 12:53 60.40217 23.46985 15801 ft 368 kts 76°
2026-04-21 12:54 60.40672 23.52063 15253 ft 366 kts 76°
2026-04-21 12:54 60.41123 23.57119 14695 ft 364 kts 76°
2026-04-21 12:54 60.41563 23.62072 14161 ft 361 kts 76°
2026-04-21 12:54 60.42006 23.67080 13556 ft 361 kts 76°
2026-04-21 12:55 60.42437 23.71998 13368 ft 350 kts 76°
2026-04-21 12:55 60.42858 23.76788 13209 ft 342 kts 76°
2026-04-21 12:55 60.43266 23.81472 13048 ft 334 kts 76°
2026-04-21 12:55 60.43663 23.86052 12901 ft 327 kts 76°
2026-04-21 12:56 60.44011 23.90533 12739 ft 318 kts 78°
2026-04-21 12:56 60.44262 23.94920 12603 ft 308 kts 79°
2026-04-21 12:56 60.44491 23.99170 12473 ft 299 kts 79°
2026-04-21 12:56 60.44721 24.03310 12342 ft 290 kts 79°
2026-04-21 12:57 60.44810 24.07383 12060 ft 291 kts 87°
2026-04-21 12:57 60.44691 24.11465 11776 ft 289 kts 89°
2026-04-21 12:57 60.44535 24.15519 11485 ft 287 kts 90°
2026-04-21 12:57 60.44384 24.19544 11183 ft 286 kts 89°
2026-04-21 12:58 60.44246 24.23498 10899 ft 284 kts 89°
2026-04-21 12:58 60.44117 24.27472 10595 ft 282 kts 89°
2026-04-21 12:58 60.43991 24.31440 10347 ft 279 kts 90°
2026-04-21 12:58 60.43872 24.35300 10230 ft 271 kts 89°
2026-04-21 12:59 60.43756 24.39071 10014 ft 268 kts 90°
2026-04-21 12:59 60.43641 24.42828 9740 ft 267 kts 90°
2026-04-21 12:59 60.43524 24.46593 9458 ft 267 kts 90°
2026-04-21 12:59 60.43116 24.50216 9093 ft 274 kts 116°
2026-04-21 13:00 60.41851 24.53155 8758 ft 280 kts 138°
2026-04-21 13:00 60.40347 24.55644 8457 ft 280 kts 139°
2026-04-21 13:00 60.38843 24.58115 8127 ft 276 kts 139°
2026-04-21 13:00 60.37353 24.60571 7669 ft 276 kts 139°
2026-04-21 13:01 60.35868 24.63033 7254 ft 275 kts 139°
2026-04-21 13:01 60.34278 24.65130 6813 ft 275 kts 161°
2026-04-21 13:01 60.32394 24.65484 6384 ft 273 kts 191°
2026-04-21 13:01 60.30669 24.64056 5952 ft 267 kts 217°
2026-04-21 13:02 60.29345 24.61549 5762 ft 253 kts 230°
2026-04-21 13:02 60.28172 24.58967 5604 ft 247 kts 230°
2026-04-21 13:02 60.25791 24.54177 5165 ft 246 kts 208°
2026-04-21 13:03 60.24123 24.53452 4890 ft 248 kts 183°
2026-04-21 13:03 60.22380 24.53309 4561 ft 252 kts 183°
2026-04-21 13:03 60.20659 24.53686 4325 ft 248 kts 159°
2026-04-21 13:03 60.19341 24.55683 4200 ft 232 kts 123°
2026-04-21 13:04 60.18742 24.58560 3983 ft 220 kts 97°
2026-04-21 13:04 60.18786 24.61507 3746 ft 209 kts 74°
2026-04-21 13:04 60.19395 24.64018 3524 ft 194 kts 46°
2026-04-21 13:04 60.20294 24.66004 3317 ft 193 kts 46°
2026-04-21 13:05 60.21177 24.68038 3060 ft 191 kts 46°
2026-04-21 13:05 60.22057 24.70015 2830 ft 189 kts 46°
2026-04-21 13:05 60.22926 24.71931 2518 ft 182 kts 45°
2026-04-21 13:05 60.23751 24.73755 2298 ft 173 kts 46°
2026-04-21 13:06 60.24568 24.75559 2096 ft 177 kts 48°
2026-04-21 13:06 60.25387 24.77367 1844 ft 174 kts 50°
2026-04-21 13:06 60.26170 24.79093 1612 ft 159 kts 51°
2026-04-21 13:06 60.26899 24.80710 1428 ft 156 kts 47°
2026-04-21 13:07 60.27600 24.82252 1225 ft 147 kts 45°
2026-04-21 13:07 60.28290 24.83775 999 ft 146 kts 47°
2026-04-21 13:07 60.28961 24.85250 827 ft 142 kts 46°
2026-04-21 13:07 60.29630 24.86742 638 ft 147 kts 47°
2026-04-21 13:08 60.30321 24.88248 452 ft 146 kts 44°
2026-04-21 13:08 60.31011 24.89745 253 ft 145 kts 46°
2026-04-21 13:08 60.31689 24.91234 155 ft 142 kts 46°
2026-04-21 13:08 60.32277 24.92520 167 ft 98 kts 48°
2026-04-21 13:09 60.32464 24.93277 173 ft 31 kts 76°
2026-04-21 13:09 60.32506 24.93693 170 ft 30 kts 81°
2026-04-21 13:09 60.32590 24.94026 169 ft 26 kts 48°
2026-04-21 13:09 60.32701 24.94292 171 ft 24 kts 46°
2026-04-21 13:10 60.32814 24.94525 173 ft 23 kts 45°
2026-04-21 13:10 60.32908 24.94731 174 ft 16 kts 49°
2026-04-21 13:10 60.32983 24.94896 176 ft 16 kts 47°
2026-04-21 13:10 60.33056 24.95058 176 ft 15 kts 48°
2026-04-21 13:11 60.33124 24.95209 176 ft 14 kts 46°
2026-04-21 13:11 60.33192 24.95352 179 ft 14 kts 55°
2026-04-21 13:11 60.33200 24.95528 181 ft 13 kts 124°
2026-04-21 13:11 60.33130 24.95657 179 ft 14 kts 149°
2026-04-21 13:12 60.33056 24.95780 180 ft 13 kts 144°
2026-04-21 13:12 60.32976 24.95883 177 ft 15 kts 150°
2026-04-21 13:12 60.32881 24.95992 174 ft 16 kts 150°
2026-04-21 13:12 60.32786 24.96105 172 ft 16 kts 149°
2026-04-21 13:13 60.32694 24.96213 171 ft 15 kts 150°
2026-04-21 13:13 60.32605 24.96314 172 ft 14 kts 150°
2026-04-21 13:13 60.32520 24.96414 173 ft 14 kts 149°
2026-04-21 13:13 60.32438 24.96510 175 ft 13 kts 150°
2026-04-21 13:14 60.32351 24.96611 170 ft 16 kts 149°
2026-04-21 13:14 60.32244 24.96735 164 ft 18 kts 150°
2026-04-21 13:14 60.32135 24.96860 163 ft 18 kts 150°
2026-04-21 13:14 60.32049 24.96957 162 ft 9 kts 160°
2026-04-21 13:15 60.32001 24.96934 162 ft 6 kts 215°
2026-04-21 13:15 60.31980 24.96903 162 ft 3 kts 217°
2026-04-21 13:15 60.31975 24.96896 162 ft 0 kts 217°